{"data":{"norad_id":47767,"intl_designator":"2021-017AX","name":"STARLINK-2185","alt_names":[],"object_type":"PAYLOAD","status":"ACTIVE","operator":null,"country":"US","launch_date":"2021-03-04","launch_site_code":"AFETR","launch_vehicle":null,"mission":null,"orbit_class":"UNKNOWN","rcs_meters":null,"size_class":null,"mass_kg":null,"dimensions":null,"purposes":["comms"],"wikipedia_slug":null,"has_3d_model":false,"image_url":null,"decayed_at":null,"tle_current":{"epoch":"2026-05-25T04:08:54.322944Z","epoch_age_seconds":56238,"freshness":"FRESH","line1":"1 47767U 21017AX  26145.17285096  .00067549  00000+0  11770-2 0  9996","line2":"2 47767  53.1554 201.9337 0006764 358.0161   2.0821 15.50123823289695","mean_motion":15.50123823,"eccentricity":0.0006764,"inclination_deg":53.1554,"raan_deg":201.9337,"arg_perigee_deg":358.0161,"mean_anomaly_deg":2.0821,"bstar":0.001177,"rev_number":28969,"period_min":92.895804750173,"perigee_km":411.7684172714,"apogee_km":420.96001851896,"semimajor_km":6794.5012178952,"source":"CELESTRAK","updated_at":"2026-05-25T13:38:16.569534Z"}}}